Flag for Germany Weather past 2 weeks in Darmstadt, Hesse, Germany

Now
34 °F

Light rain. Mostly cloudy.


Feels Like: 29 °F
Forecast: 35 / 40 °F
Wind: 6 mph from South

Location: Frankfurt-M-Flughafen Airport

Current Time: Jan 25, 2015 at 9:59:18 PM

Latest Report: Jan 25, 2015 at 9:20 PM


Visibility: N/A

Pressure: 30.39 "Hg

Humidity: 100%

Dew point: 34 °F

Location of DarmstadtLocation

Historic Weather in Darmstadt — Graph

°F

Darmstadt temperature yesterday

Maximum temperature yesterday: 36 °F (at 8:50 PM)
Minimum temperature yesterday: 25 °F (at 1:50 AM)
Average temperature yesterday: 30 °F

Past Weeks' High & Low Weather Summary

 TemperatureHumidityPressure
High57 °F (Jan 13, 3:20 PM)100% (Jan 15, 1:50 AM)30.42 "Hg (Jan 15, 1:50 AM)
Low25 °F (Jan 24, 1:50 AM)39% (Jan 13, 3:20 PM)29.62 "Hg (Jan 15, 6:20 PM)
Average38 °F82%29.99 "Hg
* Reported Jan 10 8:20 PM — Jan 25 8:50 PM, Darmstadt, Weather by CustomWeather, © 2014

Note: Actual official high and low records may vary slightly from our data, if they occured in-between our weather recording intervals... More about our weather records

Advertising

Darmstadt weather history for previous 24 hours

 ConditionsComfort  
Time TempWeatherWind HumidityBarometerVisibility
8:50 PM
Jan 25
36 °FLight rain. Mostly cloudy.7 mph93%30.39 "HgN/A
8:20 PM36 °FLight rain. Passing clouds.6 mph93%30.39 "HgN/A
7:50 PM36 °FLight rain. Passing clouds.5 mph93%30.39 "HgN/A
7:20 PM36 °FPassing clouds.6 mph93%30.39 "HgN/A
6:50 PM36 °FPassing clouds.5 mph93%30.39 "HgN/A
6:20 PM36 °FPartly cloudy.3 mph93%30.39 "HgN/A
5:50 PM37 °FPassing clouds.5 mph87%30.39 "HgN/A
5:20 PM37 °FPassing clouds.6 mph87%30.39 "HgN/A
4:50 PM37 °FBroken clouds.3 mph87%30.39 "HgN/A
4:20 PM37 °FBroken clouds.6 mph93%30.39 "HgN/A
3:50 PM37 °FPartly sunny.7 mph93%30.39 "HgN/A
3:20 PM37 °FBroken clouds.8 mph93%30.39 "HgN/A
2:50 PM37 °FPartly sunny.7 mph87%30.39 "HgN/A
2:20 PM37 °FBroken clouds.8 mph87%30.39 "HgN/A
1:50 PM37 °FBroken clouds.6 mph87%30.39 "HgN/A
1:20 PM37 °FPartly sunny.7 mph87%30.39 "HgN/A
12:50 PM37 °FBroken clouds.7 mph87%30.39 "HgN/A
12:20 PM37 °FPartly sunny.7 mph87%30.42 "HgN/A
11:50 AM36 °FPartly sunny.6 mph93%30.42 "HgN/A
11:20 AM36 °FPartly sunny.5 mph87%30.42 "HgN/A
10:50 AM36 °FPartly sunny.5 mph87%30.42 "HgN/A
10:20 AM34 °FPartly sunny.3 mph93%30.42 "HgN/A
9:50 AM34 °FPartly sunny.7 mph93%30.42 "HgN/A
9:20 AM34 °FBroken clouds.3 mph93%30.39 "HgN/A
8:50 AM32 °FPartly sunny.5 mph93%30.39 "HgN/A
8:20 AM34 °FBroken clouds.5 mph93%30.39 "HgN/A
7:50 AM32 °FPassing clouds.6 mph100%30.39 "HgN/A
7:20 AM30 °FPartly cloudy.7 mph93%30.39 "HgN/A
6:50 AM28 °FPassing clouds.7 mph100%30.36 "HgN/A
6:20 AM30 °FPassing clouds.7 mph100%30.36 "HgN/A
5:50 AM30 °FPassing clouds.8 mph100%30.36 "HgN/A
5:20 AM28 °FPassing clouds.3 mph100%30.33 "HgN/A
4:50 AM32 °FPassing clouds.3 mph100%30.33 "HgN/A
4:20 AM28 °FPassing clouds.5 mph100%30.33 "HgN/A
3:50 AM30 °FPassing clouds.5 mph93%30.33 "HgN/A
3:20 AM34 °FPassing clouds.7 mph87%30.30 "HgN/A
2:50 AM36 °FPassing clouds.6 mph87%30.30 "HgN/A
2:20 AM32 °FPassing clouds.3 mph93%30.30 "HgN/A
1:50 AM34 °FPassing clouds.6 mph87%30.30 "HgN/A
1:20 AM34 °FPassing clouds.8 mph93%30.30 "HgN/A
12:50 AM36 °FClear.13 mph87%30.27 "Hg10 mi
12:20 AM36 °FClear.14 mph87%30.27 "Hg10 mi
11:50 PM
Jan 24
36 °FClear.9 mph93%30.27 "Hg10 mi
11:20 PM30 °FClear.5 mph100%30.27 "Hg10 mi
10:50 PM34 °FPassing clouds.6 mph93%30.24 "HgN/A
10:20 PM32 °FPassing clouds.10 mph93%30.24 "HgN/A
9:50 PM36 °FPassing clouds.2 mph87%30.24 "HgN/A
9:20 PM36 °FPassing clouds.8 mph93%30.21 "HgN/A
Weather by CustomWeather, © 2014

See weather overviewHow to use our weather pages